Regional Weather Roundup
Issued by NWS

Home | Current Version | Previous Version | Graphics & Text | Print | Product List | Glossary On
Versions: 1 2 3 4 5 6 7 8 9 10 11 12 13 14 15 16 17 18 19 20 21 22 23 24 25 26 27 28 29 30 31 32 33 34 35 36 37 38 39 40 41 42 43 44 45 46 47 48 49 50
000
ASUS44 KMEG 301600
RWRTN
TENNESSEE HOURLY STATE WEATHER ROUNDUP
NATIONAL WEATHER SERVICE MEMPHIS TN
1100 AM CDT THU JUL 30 2015

TNZ002-004-019-021-049-052-054-088>092-301700-
WEST TENNESSEE

CITY           SKY/WX    TMP DP  RH WIND       PRES   REMARKS
MEMPHIS INTL   SUNNY     87  67  51 N13       30.11R HX  90
NWS MEMPHIS      N/A     84 N/A N/A MISG        N/A
JACKSON        SUNNY     86  62  44 NE10      30.12S
DYERSBURG        N/A    N/A N/A N/A MISG        N/A
PARIS          SUNNY     81  61  50 NE13      30.15R
$$

TNZ008-025-027-028-033-062-065-066-301700-
NORTH MIDDLE TENNESSEE

CITY           SKY/WX    TMP DP  RH WIND       PRES   REMARKS
NASHVILLE      MOSUNNY   85  62  46 N13       30.11S
CLARKSVILLE    SUNNY     82  62  50 N10       30.13R
CROSSVILLE     PTSUNNY   80  69  69 N9        30.13S
$$

TNZ061-075-076-078-094-096-097-301700-
SOUTH MIDDLE TENNESSEE

CITY           SKY/WX    TMP DP  RH WIND       PRES   REMARKS
FAYETTEVILLE   CLOUDY    79  72  78 VRB6      30.09S
TULLAHOMA      PTSUNNY   81  70  69 N9        30.11S
WINCHESTER     MOSUNNY   82  73  74 N9        30.09R
MCMINNVILLE    MOSUNNY   82  73  74 N7        30.10S
COLUMBIA       SUNNY     84  66  54 NE8       30.09S
SHELBYVILLE    SUNNY     84  70  61 N8        30.11R
$$

TNZ017-018-042-046-047-301700-
NORTHEAST TENNESSEE

CITY           SKY/WX    TMP DP  RH WIND       PRES   REMARKS
TRI CITIES     PTSUNNY   83  72  69 CALM      30.07S
ELIZABETHTON   MOSUNNY   82  72  69 VRB3      30.06F
$$

TNZ012-013-036-069-073-074-301700-
CENTRAL EAST TENNESSEE

CITY           SKY/WX    TMP DP  RH WIND       PRES   REMARKS
KNOXVILLE      MOSUNNY   85  72  65 VRB6      30.05S HX  91
OAK RIDGE      SUNNY     85  73  67 E6        30.07S HX  91
GATLINBURG       N/A     84  70  61 VRB3      30.05S
$$

TNZ083-085-099-301700-
SOUTHEAST TENNESSEE

CITY           SKY/WX    TMP DP  RH WIND       PRES   REMARKS
CHATTANOOGA    PTSUNNY   86  73  65 N12       30.05S HX  93
$$

SKY/WX REPORTED AS FAIR MEANS FEW OR NO CLOUDS BELOW
12 THOUSAND FEET.



USA.gov is the U.S. government's official web portal to all federal, state and local government web resources and services.